User: anonymous   Login
Location: Caltech
(34.1382°N, 118.1253°W)
Time: 12:36:42
(UTC-07:00)
Language:

CZ-4B DEB - Orbit

View from above orbital plane
View from above orbital plane
View from above satellite
View from above satellite

Ground track
Ground track

The orbit data is extracted from the following two-line orbital elements,

1 27433U 02024D   17115.90826202 +.00000129 +00000-0 +94725-4 0  9994
2 27433 098.9633 089.0255 0014074 194.3712 165.7061 14.12167896769802
Epoch (UTC): 25 April 2017 21:47:53
Eccentricity: 0.0014074
inclination: 98.9633°
perigee height: 842 km
apogee height: 862 km
right ascension of ascending node: 89.0255°
argument of perigee: 194.3712°
revolutions per day: 14.12167896
mean anomaly at epoch: 165.7061°
orbit number at epoch: 76980

The dashed part of the orbit path shows where the satellite is in the earth's shadow,  

DLR